Time,TemperatureF,DewpointF,PressureIn,WindDirection,WindDirectionDegrees,WindSpeedMPH,WindSpeedGustMPH,Humidity,HourlyPrecipIn,Conditions,Clouds,dailyrainin,SoftwareType,DateUTC
2013-07-31 00:02:00,67.0,62.0,-100.00,NNE,30,0.0,0.0,86,-99.99,,,-99.99,,2013-07-31 04:02:00,
2013-07-31 00:12:00,67.0,63.0,-100.00,NE,35,1.0,1.0,86,-99.99,,,-99.99,,2013-07-31 04:12:00,
2013-07-31 00:22:00,67.0,63.0,-100.00,ENE,60,1.0,1.0,86,-99.99,,,-99.99,,2013-07-31 04:22:00,
2013-07-31 00:32:00,67.0,63.0,-100.00,NNE,20,0.0,1.0,86,-99.99,,,-99.99,,2013-07-31 04:32:00,
2013-07-31 01:02:00,66.0,63.0,-100.00,ENE,70,1.0,1.0,88,-99.99,,,-99.99,,2013-07-31 05:02:00,
2013-07-31 01:11:00,66.0,63.0,-100.00,ESE,105,2.0,2.0,88,-99.99,,,-99.99,,2013-07-31 05:11:00,
2013-07-31 01:22:00,66.0,63.0,-100.00,East,90,1.0,2.0,88,-99.99,,,-99.99,,2013-07-31 05:22:00,
2013-07-31 01:32:00,66.0,63.0,-100.00,ENE,70,1.0,2.0,88,-99.99,,,-99.99,,2013-07-31 05:32:00,
2013-07-31 01:42:00,66.0,63.0,-100.00,East,80,1.0,2.0,88,-99.99,,,-99.99,,2013-07-31 05:42:00,
2013-07-31 01:52:00,66.0,63.0,-100.00,East,95,1.0,1.0,88,-99.99,,,-99.99,,2013-07-31 05:52:00,
2013-07-31 02:02:00,66.0,63.0,-100.00,ENE,75,1.0,1.0,88,-99.99,,,-99.99,,2013-07-31 06:02:00,
2013-07-31 02:32:00,66.0,63.0,-100.00,SE,140,1.0,2.0,89,-99.99,,,-99.99,,2013-07-31 06:32:00,
2013-07-31 02:43:00,66.0,63.0,-100.00,East,90,0.0,1.0,89,-99.99,,,-99.99,,2013-07-31 06:43:00,
2013-07-31 02:53:00,66.0,63.0,-100.00,ESE,115,1.0,2.0,89,-99.99,,,-99.99,,2013-07-31 06:53:00,
2013-07-31 03:02:00,66.0,63.0,-100.00,SE,130,1.0,2.0,89,-99.99,,,-99.99,,2013-07-31 07:02:00,
2013-07-31 03:12:00,66.0,63.0,-100.00,SE,140,1.0,1.0,88,-99.99,,,-99.99,,2013-07-31 07:12:00,
2013-07-31 03:22:00,67.0,63.0,-100.00,East,90,0.0,1.0,88,-99.99,,,-99.99,,2013-07-31 07:22:00,
2013-07-31 03:32:00,66.0,63.0,-100.00,ESE,115,1.0,2.0,88,-99.99,,,-99.99,,2013-07-31 07:32:00,
2013-07-31 03:43:00,66.0,63.0,-100.00,East,100,1.0,2.0,88,-99.99,,,-99.99,,2013-07-31 07:43:00,
2013-07-31 03:52:00,66.0,63.0,-100.00,East,90,2.0,2.0,88,-99.99,,,-99.99,,2013-07-31 07:52:00,
2013-07-31 04:02:00,66.0,63.0,-100.00,East,100,0.0,2.0,88,-99.99,,,-99.99,,2013-07-31 08:02:00,
2013-07-31 04:22:00,66.0,63.0,-100.00,East,80,1.0,2.0,88,-99.99,,,-99.99,,2013-07-31 08:22:00,
2013-07-31 04:32:00,66.0,63.0,-100.00,East,80,2.0,2.0,89,-99.99,,,-99.99,,2013-07-31 08:32:00,
2013-07-31 05:43:00,65.0,63.0,-100.00,ENE,75,4.0,4.0,91,-99.99,,,-99.99,,2013-07-31 09:43:00,
2013-07-31 06:02:00,65.0,63.0,-100.00,East,85,3.0,5.0,91,-99.99,,,-99.99,,2013-07-31 10:02:00,
2013-07-31 06:44:00,65.0,63.0,-100.00,East,90,2.0,5.0,92,-99.99,,,-99.99,,2013-07-31 10:44:00,
2013-07-31 07:03:00,65.0,63.0,-100.00,East,80,2.0,4.0,92,-99.99,,,-99.99,,2013-07-31 11:03:00,
2013-07-31 07:12:00,65.0,63.0,-100.00,ENE,75,3.0,4.0,92,-99.99,,,-99.99,,2013-07-31 11:12:00,
2013-07-31 07:22:00,65.0,63.0,-100.00,ENE,75,3.0,4.0,93,-99.99,,,-99.99,,2013-07-31 11:22:00,
2013-07-31 07:33:00,65.0,63.0,-100.00,ENE,75,2.0,4.0,93,-99.99,,,-99.99,,2013-07-31 11:33:00,
2013-07-31 07:43:00,65.0,63.0,-100.00,NE,55,3.0,4.0,93,-99.99,,,-99.99,,2013-07-31 11:43:00,
2013-07-31 08:02:00,66.0,64.0,-100.00,ESE,115,2.0,4.0,93,-99.99,,,-99.99,,2013-07-31 12:02:00,
2013-07-31 08:43:00,66.0,64.0,-100.00,SSE,150,4.0,6.0,92,-99.99,,,-99.99,,2013-07-31 12:43:00,
2013-07-31 09:02:00,66.0,64.0,-100.00,SSE,160,4.0,6.0,91,-99.99,,,-99.99,,2013-07-31 13:02:00,
2013-07-31 09:43:00,67.0,65.0,-100.00,South,170,6.0,7.0,90,-99.99,,,-99.99,,2013-07-31 13:43:00,
2013-07-31 09:53:00,67.0,65.0,-100.00,South,170,4.0,7.0,90,-99.99,,,-99.99,,2013-07-31 13:53:00,
2013-07-31 10:02:00,68.0,65.0,-100.00,SSE,160,5.0,8.0,89,-99.99,,,-99.99,,2013-07-31 14:02:00,
2013-07-31 10:12:00,69.0,65.0,-100.00,SE,145,2.0,6.0,87,-99.99,,,-99.99,,2013-07-31 14:12:00,
2013-07-31 10:23:00,69.0,65.0,-100.00,WNW,295,0.0,4.0,85,-99.99,,,-99.99,,2013-07-31 14:23:00,
2013-07-31 10:34:00,70.0,65.0,-100.00,SSW,195,1.0,5.0,83,-99.99,,,-99.99,,2013-07-31 14:34:00,
2013-07-31 10:43:00,71.0,65.0,-100.00,South,185,6.0,7.0,79,-99.99,,,-99.99,,2013-07-31 14:43:00,
2013-07-31 11:02:00,72.0,65.0,-100.00,SSW,205,2.0,11.0,78,-99.99,,,-99.99,,2013-07-31 15:02:00,
2013-07-31 11:43:00,73.0,64.0,-100.00,SSW,200,3.0,6.0,73,-99.99,,,-99.99,,2013-07-31 15:43:00,
2013-07-31 11:53:00,74.0,64.0,-100.00,South,170,5.0,9.0,72,-99.99,,,-99.99,,2013-07-31 15:53:00,
2013-07-31 12:02:00,75.0,64.0,-100.00,South,180,2.0,9.0,70,-99.99,,,-99.99,,2013-07-31 16:02:00,
2013-07-31 12:33:00,76.0,64.0,-100.00,South,175,6.0,9.0,66,-99.99,,,-99.99,,2013-07-31 16:33:00,
2013-07-31 12:44:00,74.0,65.0,-100.00,SSW,210,3.0,9.0,72,-99.99,,,-99.99,,2013-07-31 16:44:00,
2013-07-31 13:03:00,74.0,65.0,-100.00,SSW,195,4.0,12.0,73,-99.99,,,-99.99,,2013-07-31 17:03:00,
2013-07-31 13:43:00,75.0,65.0,-100.00,South,170,6.0,10.0,72,-99.99,,,-99.99,,2013-07-31 17:43:00,
2013-07-31 14:02:00,74.0,65.0,-100.00,SSE,155,6.0,9.0,71,-99.99,,,-99.99,,2013-07-31 18:02:00,
2013-07-31 14:33:00,74.0,65.0,-100.00,SSE,165,6.0,9.0,72,-99.99,,,-99.99,,2013-07-31 18:33:00,
2013-07-31 14:43:00,74.0,65.0,-100.00,SSW,205,6.0,8.0,74,-99.99,,,-99.99,,2013-07-31 18:43:00,
2013-07-31 16:03:00,72.0,68.0,-100.00,South,180,3.0,6.0,86,-99.99,,,-99.99,,2013-07-31 20:03:00,
2013-07-31 16:12:00,72.0,68.0,-100.00,South,190,2.0,5.0,86,-99.99,,,-99.99,,2013-07-31 20:12:00,
2013-07-31 16:43:00,73.0,68.0,-100.00,SSW,205,2.0,7.0,85,-99.99,,,-99.99,,2013-07-31 20:43:00,
2013-07-31 17:13:00,72.0,67.0,-100.00,SW,235,4.0,9.0,85,-99.99,,,-99.99,,2013-07-31 21:13:00,
2013-07-31 18:13:00,71.0,67.0,-100.00,SW,225,4.0,8.0,89,-99.99,,,-99.99,,2013-07-31 22:13:00,
2013-07-31 18:22:00,71.0,67.0,-100.00,SW,220,3.0,7.0,89,-99.99,,,-99.99,,2013-07-31 22:22:00,
2013-07-31 18:33:00,71.0,67.0,-100.00,SW,230,4.0,9.0,88,-99.99,,,-99.99,,2013-07-31 22:33:00,
2013-07-31 18:43:00,71.0,67.0,-100.00,SW,220,3.0,7.0,88,-99.99,,,-99.99,,2013-07-31 22:43:00,
2013-07-31 19:02:00,71.0,67.0,-100.00,SSW,210,4.0,9.0,88,-99.99,,,-99.99,,2013-07-31 23:02:00,
2013-07-31 19:22:00,70.0,67.0,-100.00,SSW,200,2.0,8.0,88,-99.99,,,-99.99,,2013-07-31 23:22:00,
2013-07-31 19:42:00,70.0,67.0,-100.00,SSW,210,2.0,7.0,89,-99.99,,,-99.99,,2013-07-31 23:42:00,
2013-07-31 19:52:00,70.0,67.0,-100.00,WSW,250,2.0,4.0,90,-99.99,,,-99.99,,2013-07-31 23:52:00,
2013-07-31 20:02:00,69.0,67.0,-100.00,SSW,200,1.0,4.0,90,-99.99,,,-99.99,,2013-08-01 00:02:00,
2013-07-31 20:12:00,69.0,67.0,-100.00,WSW,245,1.0,4.0,91,-99.99,,,-99.99,,2013-08-01 00:12:00,
2013-07-31 20:22:00,69.0,67.0,-100.00,SW,215,2.0,6.0,92,-99.99,,,-99.99,,2013-08-01 00:22:00,
2013-07-31 20:32:00,69.0,67.0,-100.00,West,280,2.0,6.0,93,-99.99,,,-99.99,,2013-08-01 00:32:00,
2013-07-31 20:43:00,69.0,67.0,-100.00,SW,215,1.0,6.0,93,-99.99,,,-99.99,,2013-08-01 00:43:00,
2013-07-31 20:52:00,69.0,67.0,-100.00,West,280,1.0,5.0,93,-99.99,,,-99.99,,2013-08-01 00:52:00,
2013-07-31 21:03:00,68.0,67.0,-100.00,SW,220,2.0,3.0,94,-99.99,,,-99.99,,2013-08-01 01:03:00,
2013-07-31 21:12:00,68.0,67.0,-100.00,West,280,2.0,4.0,94,-99.99,,,-99.99,,2013-08-01 01:12:00,
2013-07-31 21:22:00,68.0,67.0,-100.00,West,280,3.0,6.0,94,-99.99,,,-99.99,,2013-08-01 01:22:00,
2013-07-31 21:33:00,68.0,67.0,-100.00,WNW,285,4.0,6.0,95,-99.99,,,-99.99,,2013-08-01 01:33:00,
2013-07-31 21:43:00,68.0,67.0,-100.00,WNW,300,6.0,7.0,95,-99.99,,,-99.99,,2013-08-01 01:43:00,
2013-07-31 22:02:00,68.0,67.0,-100.00,WNW,295,6.0,7.0,95,-99.99,,,-99.99,,2013-08-01 02:02:00,
2013-07-31 22:22:00,68.0,67.0,-100.00,WNW,295,5.0,9.0,95,-99.99,,,-99.99,,2013-08-01 02:22:00,
2013-07-31 22:32:00,68.0,67.0,-100.00,NW,310,4.0,8.0,95,-99.99,,,-99.99,,2013-08-01 02:32:00,
2013-07-31 22:43:00,68.0,66.0,-100.00,WNW,295,6.0,8.0,95,-99.99,,,-99.99,,2013-08-01 02:43:00,
2013-07-31 23:12:00,68.0,66.0,-100.00,WNW,290,3.0,5.0,95,-99.99,,,-99.99,,2013-08-01 03:12:00,
2013-07-31 23:22:00,67.0,66.0,-100.00,WNW,300,4.0,5.0,95,-99.99,,,-99.99,,2013-08-01 03:22:00,
2013-07-31 23:32:00,67.0,66.0,-100.00,WNW,300,4.0,6.0,95,-99.99,,,-99.99,,2013-08-01 03:32:00,
2013-07-31 23:43:00,67.0,66.0,-100.00,WNW,300,4.0,6.0,95,-99.99,,,-99.99,,2013-08-01 03:43:00,